Regional Weather Roundup
Issued by NWS

Home | Current Version | Previous Version | Text Only | Print | Product List | Glossary On
Versions: 1 2 3 4 5 6 7 8 9 10 11 12 13 14 15 16 17 18 19 20 21 22 23 24 25 26 27 28 29 30 31 32 33 34 35 36 37 38 39 40 41 42 43 44 45 46 47 48 49 50
595
ASUS43 KDMX 222006
RWRIA

WEATHER ROUNDUP FOR IOWA
NATIONAL WEATHER SERVICE DES MOINES IA
300 PM CDT TUE MAY 22 2018

NOTE: "FAIR" INDICATES FEW OR NO CLOUDS BELOW 12,000 FEET WITH NO
SIGNIFICANT WEATHER AND/OR OBSTRUCTIONS TO VISIBILITY.

* - THESE STATIONS ARE NOT NWS STATIONS...THUS NOT UNDER NWS
QUALITY CONTROL.  THEY ALSO DO NOT REPORT WEATHER SUCH
AS PRECIPITATION OR FOG.

IAZ001>003-012>014-020>022-031>034-043>046-222100-
   NORTHWEST IOWA

CITY           SKY/WX    TMP DP  RH WIND       PRES   REMARKS
CARROLL *      MOSUNNY  N/A N/A N/A S15       30.00F
CHEROKEE *     PTSUNNY   80  64  59 S10       29.98F HX  81
DENISON *      PTSUNNY   75  63  64 S10G16    30.01F
LE MARS *      CLOUDY    77  64  65 SE15      29.97S
ORANGE CITY *  MOSUNNY   81  63  54 S10G16    29.98S HX  82
SHELDON *      PTSUNNY   77  64  65 SE12      29.97F
SIOUX CITY     CLOUDY    75  67  76 SE8       29.97S
SPENCER        MOSUNNY   79  63  57 S13       30.00F HX  80
STORM LAKE *   MOSUNNY   77  63  61 SE9G18    30.00F
$$

IAZ055>058-069>071-079>083-090>094-222100-
   SOUTHWEST IOWA

CITY           SKY/WX    TMP DP  RH WIND       PRES   REMARKS
ATLANTIC *     PTSUNNY   72  66  83 E7        30.02S
AUDUBON *      RAIN      70  64  83 CALM      30.03F
CLARINDA *     CLOUDY    82  64  54 S10       30.00S HX  84
COUNCIL BLFS * MOSUNNY   79  72  78 S14G22    29.97F HX  82
CRESTON *      CLOUDY    73  64  73 NE7       30.04R
HARLAN  *      PTSUNNY   75  66  73 SE13      30.03F
LAMONI         CLOUDY    77  63  61 S15G22    29.99F
RED OAK *      CLOUDY    79  68  69 S9        29.99F HX  81
SHENANDOAH *   CLOUDY    82  63  51 SE15G21   29.98F HX  83
$$

IAZ047>049-059>061-072>074-084-222100-
   CENTRAL IOWA

CITY           SKY/WX    TMP DP  RH WIND       PRES   REMARKS
AMES           MOSUNNY   76  63  64 S5        30.01F
ANKENY *       MOSUNNY   75  64  69 S5        30.02F
BOONE *        MOSUNNY   77  63  61 VRB7      30.01F
CHARITON *     CLOUDY    77  63  61 S8G15     30.01F
DES MOINES     PTSUNNY   77  64  64 S9        30.01F
GRINNELL*      CLOUDY    76  63  64 SE5       30.05F
KNOXVILLE *    CLOUDY    75  63  64 SE5       30.02F
MARSHALLTOWN   MOSUNNY   77  63  61 CALM      30.02F
NEWTON *       CLOUDY    75  63  64 CALM      30.03F
PELLA *        PTSUNNY   77  64  63 SE3       30.04F
PERRY *        FAIR      78  65  62 S9        30.02F HX  80
$$

IAZ004>006-015-016-023>025-035-036-222100-
   NORTH CENTRAL IOWA

CITY           SKY/WX    TMP DP  RH WIND       PRES   REMARKS
ALGONA *       MOSUNNY   77  61  57 SE10      30.02F
CLARION *      MOSUNNY   79  59  50 VRB5G15   30.02F HX  80
ESTHERVILLE    MOSUNNY   76  60  57 S12G17    30.00F
FORT DODGE *   PTSUNNY   77  63  61 SE6       30.02F
MASON CITY     SUNNY     79  58  48 MISG      30.03F HX  80
FOREST CITY *  FAIR      79  59  50 W3        30.02F HX  80
WEBSTER CITY * PTSUNNY   79  63  57 SE9G15    30.00F HX  80
IOWA FALLS *   FAIR      78  61  55 S5        30.04F HX  80
$$

IAZ007>011-017>019-026>030-037>042-050>054-066-222100-
   NORTHEAST IOWA

CITY           SKY/WX    TMP DP  RH WIND       PRES   REMARKS
CEDAR RAPIDS   FAIR      75  60  59 MISG      30.04F
CHARLES CITY * PTSUNNY   75  57  53 CALM      30.05S
CLINTON *      PTSUNNY  N/A N/A N/A NW7       30.07F
DECORAH *      CLOUDY    66  59  77 VRB3G12   30.06F
DUBUQUE        PTSUNNY   69  58  67 N5        30.06F
MONTICELLO *   FAIR      72  61  68 N5        30.05F
OELWEIN *      FAIR      70  59  68 CALM      30.07F
WATERLOO       FAIR      74  59  59 VRB3      30.03F
$$

IAZ064-065-067-068-078-222100-
   EAST CENTRAL IOWA

CITY           SKY/WX    TMP DP  RH WIND       PRES   REMARKS
DAVENPORT      FAIR      73  60  63 N7        30.07F
IOWA CITY      FAIR      76  61  59 NW6       30.05F
MT. PLEASANT * CLOUDY    77  59  53 W7        30.05F
MUSCATINE *    PTSUNNY   77  59  53 N6        30.05F
QUAD CITIES    FAIR      75  61  61 NW6       30.05F
$$

IAZ062-063-075>077-085>089-095>099-222100-
   SOUTHEAST IOWA

CITY           SKY/WX    TMP DP  RH WIND       PRES   REMARKS
BURLINGTON     PTSUNNY   76  62  62 E6        30.05F
FAIRFIELD *    CLOUDY    77  59  53 SW7       30.04F
FORT MADISON * MOSUNNY   81  61  50 NW5       30.06F HX  81
KEOKUK *       PTSUNNY   81  61  50 VRB5      30.04F HX  81
OSKALOOSA *    PTSUNNY   76  63  64 SW3       30.05S
CENTERVILLE *    N/A     79  64  61 CALM      30.05F HX  81
OTTUMWA        CLOUDY    78  61  55 SW6       30.04S HX  80
WASHINGTON *   CLOUDY    77  63  61 VRB3      30.06F
$$

ABBREVIATIONS USED IN REMARKS
   TC - TEMPERATURES IN CELSIUS
  WCI - WIND CHILL INDEX
   HX - HEAT INDEX
  VSB - VISIBILITY
$$





USA.gov is the U.S. government's official web portal to all federal, state and local government web resources and services.